Mojave, CA

8:31 AM PST on December 15, 2019 (GMT -0800)
Mojave

Weather History for KMHV - October, 2019

Change the Weather History Date:

Thursday, October 17, 2019

  Actual Average Record
Temperature  
Mean Temperature 62 °F -  
Max Temperature 69 °F 77 °F 91 °F (1991)
Min Temperature 55 °F 47 °F 29 °F (1971)
Degree Days  
Heating Degree Days 3    
Growing Degree Days 12 (Base 50)    
Moisture  
Dew Point 38 °F    
Average Humidity 42    
Maximum Humidity 59    
Minimum Humidity 21    
Precipitation  
Precipitation 0.00 in - - ()
Sea Level Pressure  
Sea Level Pressure 29.82 in    
Wind  
Wind Speed 20 mph (WNW)    
Max Wind Speed 51 mph    
Max Gust Speed 64 mph    
Visibility 9 miles    
Events      
Averages and records for this station are not official NWS values.
T = Trace of Precipitation, MM = Missing Value Source: NWS Daily Summary

Daily Weather History Graph

Daily Weather History Graph

Search for Another Location

Airport or City:

Astronomy

Oct. 17, 2019 Rise Set
Actual Time 7:00 AM PDT 6:15 PM PDT
Civil Twilight 6:34 AM PDT 6:40 PM PDT
Nautical Twilight 6:05 AM PDT 7:10 PM PDT
Astronomical Twilight 5:35 AM PDT 7:39 PM PDT
Moon 8:57 PM PDT (10/17) 10:30 AM PDT (10/17)
Length of Visible Light 12h 06m
Length of Day
11h 15m
Waning Gibbous, 86% of the Moon is Illuminated
Oct 17
Waning Gibbous
Oct 21
Last Quarter
Oct 27
New
Nov 4
First Quarter
Nov 12
Full

Hourly Weather History & Observations

Time (PDT) Temp. Dew Point Humidity Pressure Visibility Wind Dir Wind Speed Gust Speed Precip Events Conditions
12:00 AM 69.8 °F 28.4 °F 21% 29.87 in 10.0 mi West 12.7 mph - N/A   Partly Cloudy
12:20 AM 69.8 °F 28.4 °F 21% 29.87 in 10.0 mi SSW 3.5 mph 13.8 mph N/A   Clear
12:40 AM 68.0 °F 28.4 °F 23% 29.87 in 10.0 mi SSW 9.2 mph - N/A   Clear
1:00 AM 68.0 °F 30.2 °F 24% 29.87 in 10.0 mi WSW 10.4 mph - N/A   Clear
1:20 AM 68.0 °F 30.2 °F 24% 29.86 in 10.0 mi West 9.2 mph 15.0 mph N/A   Clear
1:40 AM 68.0 °F 30.2 °F 24% 29.86 in 10.0 mi West 9.2 mph - N/A   Clear
2:00 AM 68.0 °F 30.2 °F 24% 29.85 in 10.0 mi West 12.7 mph - N/A   Clear
2:20 AM 68.0 °F 30.2 °F 24% 29.85 in 10.0 mi WNW 8.1 mph - N/A   Clear
2:40 AM 68.0 °F 30.2 °F 24% 29.84 in 10.0 mi West 11.5 mph - N/A   Clear
3:00 AM 68.0 °F 30.2 °F 24% 29.84 in 10.0 mi WNW 12.7 mph 18.4 mph N/A   Clear
3:20 AM 66.2 °F 32.0 °F 28% 29.83 in 10.0 mi West 11.5 mph - N/A   Clear
3:40 AM 64.4 °F 32.0 °F 30% 29.83 in 10.0 mi WSW 8.1 mph - N/A   Clear
4:00 AM 66.2 °F 32.0 °F 28% 29.83 in 10.0 mi WSW 13.8 mph - N/A   Clear
4:20 AM 64.4 °F 32.0 °F 30% 29.82 in 10.0 mi WSW 10.4 mph - N/A   Clear
4:40 AM 64.4 °F 33.8 °F 32% 29.83 in 10.0 mi West 15.0 mph 21.9 mph N/A   Clear
5:00 AM 64.4 °F 33.8 °F 32% 29.83 in 10.0 mi West 17.3 mph 27.6 mph N/A   Clear
5:20 AM 62.6 °F 33.8 °F 34% 29.84 in 10.0 mi WSW 12.7 mph 20.7 mph N/A   Clear
5:40 AM 62.6 °F 33.8 °F 34% 29.83 in 10.0 mi WNW 25.3 mph 33.4 mph N/A   Clear
6:00 AM 62.6 °F 35.6 °F 37% 29.83 in 10.0 mi WNW 21.9 mph 34.5 mph N/A   Clear
6:20 AM 60.8 °F 37.4 °F 42% 29.84 in 10.0 mi West 16.1 mph 31.1 mph N/A   Clear
6:40 AM 59.0 °F 37.4 °F 45% 29.84 in 9.0 mi West 18.4 mph 27.6 mph N/A   Clear
7:00 AM 59.0 °F 39.2 °F 48% 29.83 in 7.0 mi WNW 23.0 mph 31.1 mph N/A   Clear
7:20 AM 59.0 °F 39.2 °F 48% 29.84 in 6.0 mi WSW 10.4 mph 27.6 mph N/A   Haze
7:40 AM 59.0 °F 39.2 °F 48% 29.82 in 6.0 mi WNW 28.8 mph - N/A   Haze
8:00 AM 60.8 °F 39.2 °F 45% 29.83 in 6.0 mi WNW 25.3 mph 33.4 mph N/A   Haze
8:20 AM 60.8 °F 39.2 °F 45% 29.83 in 6.0 mi WNW 25.3 mph 32.2 mph N/A   Haze
8:40 AM 62.6 °F 39.2 °F 42% 29.83 in 6.0 mi West 25.3 mph 32.2 mph N/A   Haze
9:00 AM 62.6 °F 39.2 °F 42% 29.83 in 6.0 mi West 28.8 mph 35.7 mph N/A   Haze
9:20 AM 64.4 °F 39.2 °F 40% 29.83 in 7.0 mi West 27.6 mph 34.5 mph N/A   Clear
9:40 AM 64.4 °F 39.2 °F 40% 29.83 in 7.0 mi WNW 31.1 mph 36.8 mph N/A   Clear
10:00 AM 64.4 °F 39.2 °F 40% 29.83 in 6.0 mi West 28.8 mph 41.4 mph N/A   Haze
10:40 AM 62.6 °F 41.0 °F 45% 29.84 in 7.0 mi WNW 35.7 mph 41.4 mph N/A   Clear
11:00 AM 64.4 °F 41.0 °F 42% 29.84 in 9.0 mi WNW 29.9 mph 40.3 mph N/A   Clear
11:20 AM 62.6 °F 41.0 °F 45% 29.84 in 9.0 mi WNW 33.4 mph 43.7 mph N/A   Clear
11:40 AM 62.6 °F 42.8 °F 48% 29.84 in 10.0 mi WNW 31.1 mph 42.6 mph N/A   Clear
12:00 PM 64.4 °F 41.0 °F 42% 29.85 in 10.0 mi WNW 29.9 mph 42.6 mph N/A   Clear
12:20 PM 64.4 °F 41.0 °F 42% 29.84 in 10.0 mi WNW 29.9 mph 41.4 mph N/A   Clear
12:40 PM 66.2 °F 41.0 °F 40% 29.82 in 10.0 mi WNW 33.4 mph 40.3 mph N/A   Clear
1:00 PM 66.2 °F 42.8 °F 43% 29.83 in 10.0 mi WNW 27.6 mph 38.0 mph N/A   Clear
1:20 PM 66.2 °F 42.8 °F 43% 29.83 in 10.0 mi West 28.8 mph 40.3 mph N/A   Clear
1:40 PM 66.2 °F 42.8 °F 43% 29.82 in 10.0 mi WNW 33.4 mph 40.3 mph N/A   Clear
2:00 PM 64.4 °F 42.8 °F 45% 29.82 in 10.0 mi West 13.8 mph 26.5 mph N/A   Clear
2:20 PM 66.2 °F 42.8 °F 43% 29.81 in 10.0 mi West 18.4 mph 28.8 mph N/A   Clear
2:40 PM 66.2 °F 42.8 °F 43% 29.79 in 10.0 mi WNW 31.1 mph 42.6 mph N/A   Clear
3:00 PM 66.2 °F 41.0 °F 40% 29.79 in 10.0 mi West 36.8 mph 48.3 mph N/A   Clear
3:20 PM 66.2 °F 41.0 °F 40% 29.78 in 10.0 mi WNW 36.8 mph 48.3 mph N/A   Clear
3:40 PM 64.4 °F 42.8 °F 45% 29.79 in 10.0 mi WNW 34.5 mph 46.0 mph N/A   Clear
4:00 PM 62.6 °F 42.8 °F 48% 29.79 in 10.0 mi NW 32.2 mph 42.6 mph N/A   Clear
4:20 PM 64.4 °F 42.8 °F 45% 29.79 in 10.0 mi WNW 35.7 mph 43.7 mph N/A   Clear
4:40 PM 62.6 °F 42.8 °F 48% 29.78 in 10.0 mi WNW 34.5 mph 50.6 mph N/A   Clear
5:00 PM 62.6 °F 42.8 °F 48% 29.78 in 10.0 mi NW 33.4 mph 48.3 mph N/A   Clear
5:20 PM 62.6 °F 42.8 °F 48% 29.79 in 10.0 mi WNW 31.1 mph 48.3 mph N/A   Clear
5:40 PM 60.8 °F 44.6 °F 55% 29.78 in 10.0 mi WNW 33.4 mph 43.7 mph N/A   Clear
6:00 PM 60.8 °F 44.6 °F 55% 29.82 in 10.0 mi West 18.4 mph 32.2 mph N/A   Scattered Clouds
6:20 PM 59.0 °F 44.6 °F 59% 29.82 in 10.0 mi West 21.9 mph 36.8 mph N/A   Scattered Clouds
6:40 PM 59.0 °F 42.8 °F 55% 29.81 in 10.0 mi WSW 23.0 mph 35.7 mph N/A   Mostly Cloudy
7:00 PM 59.0 °F 41.0 °F 51% 29.81 in 10.0 mi WSW 16.1 mph 31.1 mph N/A   Overcast
7:20 PM 59.0 °F 41.0 °F 51% 29.79 in 10.0 mi West 27.6 mph 42.6 mph N/A   Overcast
7:40 PM 57.2 °F 41.0 °F 55% 29.80 in 10.0 mi West 27.6 mph 36.8 mph N/A   Overcast
8:00 PM 57.2 °F 39.2 °F 51% 29.78 in 10.0 mi WNW 28.8 mph 39.1 mph N/A   Overcast
8:20 PM 57.2 °F 39.2 °F 51% 29.81 in 9.0 mi NW 19.6 mph 28.8 mph N/A   Overcast
8:40 PM 57.2 °F 37.4 °F 48% 29.81 in 8.0 mi WNW 19.6 mph 31.1 mph N/A   Overcast
9:00 PM 55.4 °F 35.6 °F 47% 29.82 in 8.0 mi NNW 15.0 mph 23.0 mph N/A   Overcast
9:20 PM 55.4 °F 37.4 °F 51% 29.82 in 9.0 mi WNW 20.7 mph 34.5 mph N/A   Overcast
9:40 PM 55.4 °F 37.4 °F 51% 29.74 in 5.0 mi WNW 44.9 mph 58.7 mph N/A   Haze
10:00 PM 57.2 °F 39.2 °F 51% 29.73 in 4.0 mi NW 50.6 mph 64.4 mph N/A   Haze
10:20 PM 55.4 °F 39.2 °F 54% 29.74 in 4.0 mi WNW 43.7 mph 62.1 mph N/A   Haze
10:40 PM 55.4 °F 39.2 °F 54% 29.75 in 4.0 mi WNW 49.5 mph 63.3 mph N/A   Haze
11:20 PM 55.4 °F 39.2 °F 54% 29.78 in 7.0 mi NW 46.0 mph 59.8 mph N/A   Scattered Clouds
11:40 PM 55.4 °F 39.2 °F 54% 29.78 in 9.0 mi WNW 41.4 mph 61.0 mph N/A   Partly Cloudy